• In Hungary
  • List of Countries
  • For 7 days
  • Water Temperature
  • Satellite Maps
  • Weather Map
  • News
  • Weather Widgets
  • user-avatar
    Login

    Hourly Weather Prutz

    Today, 16 November, Friday

    Time Temperature Precipitation Wind Pressure Humidity
    00:00 +3°C° 0 mm 1 mps 636 mmHg 45%
    01:00 +3°C° 0 mm 1 mps 636 mmHg 43%
    02:00 +3°C° 0 mm 1 mps 636 mmHg 42%
    03:00 +3°C° 0 mm 1 mps 636 mmHg 42%
    04:00 +3°C° 0 mm 1 mps 636 mmHg 41%
    05:00 +2°C° 0 mm 1 mps 636 mmHg 42%
    06:00 +2°C° 0 mm 1 mps 636 mmHg 42%
    07:00 +2°C° 0 mm 1 mps 636 mmHg 43%
    08:00 +4°C° 0 mm 1 mps 637 mmHg 42%
    09:00 +5°C° 0 mm 1 mps 638 mmHg 41%
    10:00 +7°C° 0 mm 1 mps 639 mmHg 40%
    11:00 +8°C° 0 mm 1 mps 639 mmHg 40%
    12:00 +8°C° 0 mm 1 mps 638 mmHg 40%
    13:00 +8°C° 0 mm 2 mps 638 mmHg 39%
    14:00 +6°C° 0 mm 2 mps 638 mmHg 48%
    15:00 +6°C° 0 mm 1 mps 637 mmHg 56%
    16:00 +4°C° 0 mm 1 mps 636 mmHg 64%
    17:00 +3°C° 0 mm 1 mps 636 mmHg 69%
    18:00 +2°C° 0 mm 1 mps 636 mmHg 74%
    19:00 +1°C° 0 mm 1 mps 636 mmHg 80%
    20:00 -1°C° 0 mm 2 mps 636 mmHg 80%
    21:00 -1°C° 0 mm 2 mps 636 mmHg 80%
    22:00 -1°C° 0 mm 2 mps 636 mmHg 80%
    23:00 -2°C° 0 mm 2 mps 636 mmHg 81%

    Tomorrow, 17 November, Saturday

    Time Temperature Precipitation Wind Pressure Humidity
    00:00 -2°C° 0 mm 2 mps 636 mmHg 81%
    01:00 -2°C° 0 mm 2 mps 636 mmHg 82%
    02:00 -2°C° 0 mm 2 mps 636 mmHg 82%
    03:00 -2°C° 0 mm 2 mps 635 mmHg 83%
    04:00 -3°C° 0 mm 2 mps 635 mmHg 83%
    05:00 -3°C° 0 mm 2 mps 635 mmHg 83%
    06:00 -3°C° 0 mm 2 mps 635 mmHg 82%
    07:00 -3°C° 0 mm 2 mps 635 mmHg 82%
    08:00 -2°C° 0 mm 2 mps 636 mmHg 74%
    09:00 +1°C° 0 mm 2 mps 636 mmHg 67%
    10:00 +2°C° 0 mm 2 mps 636 mmHg 60%
    11:00 +3°C° 0 mm 2 mps 636 mmHg 54%
    12:00 +4°C° 0 mm 2 mps 636 mmHg 48%
    13:00 +5°C° 0 mm 2 mps 636 mmHg 42%
    14:00 +5°C° 0 mm 1 mps 636 mmHg 47%
    15:00 +4°C° 0 mm 1 mps 635 mmHg 52%
    16:00 +3°C° 0 mm 1 mps 635 mmHg 56%
    17:00 +1°C° 0 mm 1 mps 634 mmHg 61%
    18:00 0°C° 0 mm 1 mps 634 mmHg 65%
    19:00 -1°C° 0 mm 1 mps 634 mmHg 69%
    20:00 -1°C° 0 mm 1 mps 634 mmHg 69%
    21:00 -1°C° 0 mm 1 mps 634 mmHg 69%
    22:00 -2°C° 0 mm 1 mps 634 mmHg 68%
    23:00 -4°C° 0 mm 2 mps 634 mmHg 68%

    Day after tomorrow, 18 November, Sunday

    Time Temperature Precipitation Wind Pressure Humidity
    00:00 -4°C° 0 mm 2 mps 634 mmHg 68%
    01:00 -4°C° 0 mm 2 mps 634 mmHg 68%
    02:00 -4°C° 0 mm 2 mps 634 mmHg 68%
    03:00 -4°C° 0 mm 2 mps 634 mmHg 68%
    04:00 -5°C° 0 mm 2 mps 634 mmHg 68%
    05:00 -5°C° 0 mm 2 mps 634 mmHg 68%
    06:00 -5°C° 0 mm 2 mps 633 mmHg 67%
    07:00 -3°C° 0 mm 1 mps 633 mmHg 67%
    08:00 -2°C° 0 mm 1 mps 634 mmHg 61%
    09:00 0°C° 0 mm 1 mps 634 mmHg 55%
    10:00 +1°C° 0 mm 1 mps 635 mmHg 49%
    11:00 +2°C° 0 mm 1 mps 635 mmHg 46%
    12:00 +3°C° 0 mm 1 mps 634 mmHg 43%
    13:00 +4°C° 0 mm 1 mps 634 mmHg 41%
    14:00 +3°C° 0 mm 1 mps 633 mmHg 46%
    15:00 +2°C° 0 mm 1 mps 633 mmHg 51%
    16:00 +1°C° 0 mm 1 mps 632 mmHg 56%
    17:00 0°C° 0 mm 1 mps 631 mmHg 62%
    18:00 -1°C° 0 mm 1 mps 631 mmHg 68%
    19:00 -2°C° 0 mm 1 mps 631 mmHg 74%
    20:00 -3°C° 0 mm 1 mps 630 mmHg 76%
    21:00 -3°C° 0 mm 1 mps 630 mmHg 77%
    22:00 -3°C° 0 mm 1 mps 630 mmHg 79%
    23:00 -3°C° 0 mm 1 mps 630 mmHg 80%

    19 November, Monday

    Time Temperature Precipitation Wind Pressure Humidity
    00:00 -3°C° 0 mm 1 mps 629 mmHg 80%
    01:00 -4°C° 0 mm 1 mps 629 mmHg 81%
    02:00 -4°C° 0 mm 1 mps 629 mmHg 82%
    03:00 -4°C° 0 mm 1 mps 628 mmHg 84%
    04:00 -4°C° 0 mm 1 mps 628 mmHg 85%
    05:00 -4°C° 0 mm 1 mps 627 mmHg 86%
    06:00 -4°C° 0 mm 1 mps 627 mmHg 86%
    07:00 -6°C° 0 mm 1 mps 627 mmHg 87%
    08:00 -6°C° 0.1 mm 2 mps 627 mmHg 83%
    09:00 -5°C° 0.1 mm 2 mps 627 mmHg 79%
    10:00 -5°C° 0.1 mm 2 mps 627 mmHg 75%
    11:00 -4°C° 0.1 mm 2 mps 626 mmHg 72%
    12:00 -4°C° 0.1 mm 2 mps 626 mmHg 69%
    13:00 -4°C° 0.1 mm 2 mps 626 mmHg 67%
    14:00 -4°C° 0.2 mm 2 mps 625 mmHg 71%
    15:00 -5°C° 0.2 mm 2 mps 625 mmHg 75%
    16:00 -5°C° 0.2 mm 2 mps 624 mmHg 79%
    17:00 -6°C° 0.2 mm 2 mps 624 mmHg 82%
    18:00 -4°C° 0.2 mm 1 mps 624 mmHg 85%
    19:00 -4°C° 0.2 mm 1 mps 624 mmHg 87%
    20:00 -4°C° 0.2 mm 1 mps 624 mmHg 87%
    21:00 -6°C° 0.2 mm 1 mps 624 mmHg 87%
    22:00 -6°C° 0.2 mm 1 mps 624 mmHg 87%
    23:00 -6°C° 0.1 mm 1 mps 623 mmHg 87%

    20 November, Tuesday

    Time Temperature Precipitation Wind Pressure Humidity
    00:00 -6°C° 0.1 mm 1 mps 623 mmHg 86%
    01:00 -6°C° 0.1 mm 1 mps 623 mmHg 86%
    02:00 -6°C° 0.1 mm 1 mps 622 mmHg 86%
    03:00 -6°C° 0.1 mm 1 mps 622 mmHg 86%
    04:00 -7°C° 0.1 mm 1 mps 621 mmHg 86%
    05:00 -7°C° 0 mm 1 mps 621 mmHg 86%
    06:00 -7°C° 0 mm 1 mps 621 mmHg 85%
    07:00 -7°C° 0 mm 1 mps 620 mmHg 85%
    08:00 -6°C° 0.1 mm 1 mps 621 mmHg 80%
    09:00 -6°C° 0.1 mm 1 mps 621 mmHg 76%
    10:00 -4°C° 0.1 mm 1 mps 621 mmHg 71%
    11:00 -3°C° 0 mm 1 mps 620 mmHg 69%
    12:00 -2°C° 0 mm 1 mps 620 mmHg 67%
    13:00 -2°C° 0 mm 1 mps 620 mmHg 65%
    14:00 -4°C° 0.1 mm 2 mps 620 mmHg 71%
    15:00 -5°C° 0.1 mm 2 mps 619 mmHg 76%
    16:00 -5°C° 0.1 mm 2 mps 619 mmHg 82%
    17:00 -6°C° 0.2 mm 2 mps 619 mmHg 84%
    18:00 -6°C° 0.2 mm 2 mps 619 mmHg 87%
    19:00 -7°C° 0.2 mm 2 mps 619 mmHg 90%
    20:00 -7°C° 0.2 mm 2 mps 619 mmHg 90%
    21:00 -7°C° 0.2 mm 2 mps 619 mmHg 90%
    22:00 -7°C° 0.2 mm 2 mps 619 mmHg 90%
    23:00 -7°C° 0.3 mm 2 mps 619 mmHg 90%

    21 November, Wednesday

    Time Temperature Precipitation Wind Pressure Humidity
    00:00 -7°C° 0.3 mm 2 mps 619 mmHg 90%
    01:00 -7°C° 0.3 mm 2 mps 619 mmHg 90%
    02:00 -7°C° 0.4 mm 2 mps 619 mmHg 90%
    03:00 -8°C° 0.4 mm 2 mps 619 mmHg 91%
    04:00 -8°C° 0.4 mm 2 mps 619 mmHg 91%
    05:00 -8°C° 0.3 mm 2 mps 619 mmHg 91%
    06:00 -8°C° 0.3 mm 2 mps 619 mmHg 91%
    07:00 -8°C° 0.3 mm 2 mps 620 mmHg 91%
    08:00 -7°C° 0.2 mm 2 mps 620 mmHg 88%
    09:00 -7°C° 0.2 mm 2 mps 621 mmHg 86%
    10:00 -7°C° 0.2 mm 2 mps 621 mmHg 83%
    11:00 -6°C° 0.2 mm 2 mps 622 mmHg 81%
    12:00 -6°C° 0.2 mm 2 mps 622 mmHg 79%
    13:00 -6°C° 0.2 mm 2 mps 622 mmHg 76%
    14:00 -6°C° 0.1 mm 2 mps 622 mmHg 78%
    15:00 -7°C° 0.1 mm 2 mps 622 mmHg 80%
    16:00 -7°C° 0.1 mm 2 mps 623 mmHg 82%
    17:00 -7°C° 0.1 mm 1 mps 623 mmHg 86%
    18:00 -8°C° 0.1 mm 1 mps 623 mmHg 89%
    19:00 -9°C° 0.1 mm 1 mps 624 mmHg 92%
    20:00 -9°C° 0 mm 1 mps 624 mmHg 91%
    21:00 -9°C° 0 mm 1 mps 624 mmHg 90%
    22:00 -10°C° 0 mm 1 mps 624 mmHg 90%
    23:00 -10°C° 0 mm 1 mps 624 mmHg 87%
    Show more